Regional Weather Roundup
Issued by NWS

Home | Current Version | Previous Version | Graphics & Text | Print | Product List | Glossary On
Versions: 1 2 3 4 5 6 7 8 9 10 11 12 13 14 15 16 17 18 19 20 21 22 23 24 25 26 27 28 29 30 31 32 33 34 35 36 37 38 39 40 41 42 43 44 45 46 47 48 49 50
000
ASUS45 KBOI 281910
RWRID
WEATHER ROUNDUP FOR IDAHO
NATIONAL WEATHER SERVICE BOISE ID
100 PM MDT MON JUL 28 2014

NOTE: "FAIR" INDICATES FEW OR NO CLOUDS BELOW 12000 FEET
WITH NO SIGNIFICANT WEATHER AND/OR OBSTRUCTIONS TO VISIBILITY

IDZ012-014-282000-
SOUTHWEST IDAHO


CITY           SKY/WX    TMP DP  RH WIND       PRES   REMARKS
BOISE          MOSUNNY   94  37  13 S12       30.08F
CALDWELL       MOSUNNY   88  46  23 E6        30.09F
MOUNTAIN HOME  PTSUNNY   87  41  20 E7        30.11R
$$

IDZ016-017-282000-
SOUTHCENTRAL IDAHO


CITY           SKY/WX    TMP DP  RH WIND       PRES   REMARKS
BURLEY         CLOUDY    80  54  40 N6        30.19F
JEROME         CLOUDY    82  46  28 W5        30.19S
TWIN FALLS     CLOUDY    86  38  18 VRB3      30.20S
$$

IDZ019>023-282000-
SOUTHEAST IDAHO


CITY           SKY/WX    TMP DP  RH WIND       PRES   REMARKS
IDAHO FALLS    CLOUDY    89  41  18 SW13      30.22F
POCATELLO      SUNNY     82  43  25 SW6       30.22S
REXBURG        PTSUNNY   85  44  23 W7        30.23F
$$

IDZ006-010-011-018-031-032-282000-
CENTRAL IDAHO MOUNTAINS


CITY           SKY/WX    TMP DP  RH WIND       PRES   REMARKS
MCCALL         PTSUNNY   79  40  24 NW7       30.23S
HAILEY         CLOUDY    72  46  40 E7        30.32R
STANLEY          N/A     79  37  22 VRB3      30.36F
SALMON         CLOUDY    75  43  31 CALM      30.19S
CHALLIS        CLOUDY    76  45  33 E5        30.26F
$$

IDZ002-004-006-007-026-282000-
NORTHERN IDAHO


CITY           SKY/WX    TMP DP  RH WIND       PRES   REMARKS
LEWISTON       MOSUNNY   91  43  18 W5        30.03F
LOWELL           N/A     86  52  30 N3        30.05F
COEUR D`ALENE  MOSUNNY   86  55  35 E13       30.10F
MULLAN PASS    MOSUNNY   75  45  34 CALM      30.36S
$$



USA.gov is the U.S. government's official web portal to all federal, state and local government web resources and services.